Regional Weather Roundup
Issued by NWS

Home | Current Version | Previous Version | Text Only | Print | Product List | Glossary Off
Versions: 1 2 3 4 5 6 7 8 9 10 11 12 13 14 15 16 17 18 19 20 21 22 23 24 25 26 27 28 29 30 31 32 33 34 35 36 37 38 39 40 41 42 43 44 45 46 47 48 49 50

000
ASUS43 KIND 040009
RWRIN

WEATHER ROUNDUP FOR INDIANA
NATIONAL WEATHER SERVICE INDIANAPOLIS IN
800 PM EDT SUN MAY 03 2015

NOTE: "FAIR" INDICATES FEW OR NO CLOUDS BELOW 12,000 FEET WITH NO
SIGNIFICANT WEATHER AND/OR OBSTRUCTIONS TO VISIBILITY.

* - STATION DOES NOT REPORT WEATHER SUCH AS PRECIPITATION OR FOG.

+ - STATION NOT QUALITY CONTROLLED BY THE NATIONAL WEATHER SERVICE.
    USE DATA WITH CAUTION...ESPECIALLY DEWPOINT AND RELATIVE
    HUMIDITY OBSERVATIONS.

INZ001>003-010>013-019-020-040100-
NORTHWEST INDIANA

CITY           SKY/WX    TMP DP  RH WIND       PRES   REMARKS
GARY /AIRPORT/ MOCLDY    79 N/A N/A S8        29.93S
KNOX *+        MOCLDY    75   9   7 S13       29.97R
LA PORTE +     CLOUDY    77  43  29 S13       29.97R
6HR MIN TEMP:  77; 6HR MAX TEMP:  83;

MICHIGAN CITY+ CLOUDY    75  34  22 S8        29.96R
MONTICELLO +   MOCLDY    73  47  39 S9        29.98R
6HR MIN TEMP:  73; 6HR MAX TEMP:  78;

VALPARAISO     CLOUDY    76  42  29 S12       29.96R
6HR MIN TEMP:  76; 6HR MAX TEMP:  81;


$$

LMZ046-743>745-040100-
SOUTHERN LAKE MICHIGAN

STATION/POSITION TIME  TEMP    WIND        PRES    WAVE
                       AIR SEA DIR/SP/G            HT
                 (UTC) (F)     (DEG/KT/KT) (MB)    (FT)
BURNS HARBOR     0000   75     200/ 13/ 17 1013.9F
MICHIGAN CITY    0000   77     170/ 12/ 15   N/A
5NW MICH CITY    0000   65 51  210/  8/ 10   N/A     1

$$

INZ004-005-014>016-021>024-040100-
NORTH CENTRAL INDIANA

CITY           SKY/WX    TMP DP  RH WIND       PRES   REMARKS
GOSHEN         MOCLDY    74  46  36 S8        29.99R
6HR MIN TEMP:  74; 6HR MAX TEMP:  78;

LOGANSPORT +   PTCLDY    72  41  33 S10       30.01R
PERU/GRISSOM   PTCLDY    71  48  44 S8        30.00R
6HR MIN TEMP:  71; 6HR MAX TEMP:  78;

ROCHESTER +    MOCLDY    77  45  31 S9        30.00S
SOUTH BEND     CLOUDY    76  43  30 S9        29.97S
6HR MIN TEMP:  76; 6HR MAX TEMP:  81;

WARSAW +       MOCLDY    73  46  38 S3        30.00S

$$

INZ006>009-017-018-025>027-040100-
NORTHEAST INDIANA

CITY           SKY/WX    TMP DP  RH WIND       PRES   REMARKS
ANGOLA *+      PTCLDY    75  70  83 SW6       30.00S
AUBURN +       CLEAR     73  43  33 SW5       30.03R
FORT WAYNE     MOCLDY    71  49  45 S9        30.03R
6HR MIN TEMP:  71; 6HR MAX TEMP:  78;

HUNTINGTON +   PTCLDY    73  46  38 S5        30.01S
6HR MIN TEMP:  73; 6HR MAX TEMP:  77;


$$

INZ028-029-035-036-043>045-051>053-040100-
WEST CENTRAL INDIANA

CITY           SKY/WX    TMP DP  RH WIND       PRES   REMARKS
CRAWFORDSVL +  MOCLDY    71  36  27 S9        30.00S
6HR MIN TEMP:  71; 6HR MAX TEMP:  78;

GREENCASTLE +  MOCLDY    72  39  30 S10       30.02S
LAFAYETTE      MOCLDY    74  43  32 S7        29.98S
6HR MIN TEMP:  74; 6HR MAX TEMP:  78;

TERRE HAUTE    MOCLDY    76  45  33 S10       30.00S
6HR MIN TEMP:  75; 6HR MAX TEMP:  79;


$$

INZ030>032-037>040-046>048-054>057-064-065-040100-
CENTRAL INDIANA

CITY           SKY/WX    TMP DP  RH WIND       PRES   REMARKS
CP ATTERBURY + PTCLDY    72  43  35 SW8       30.05R
COLUMBUS       CLEAR     72  43  35 S9        30.04
FRANKFORT +    PTCLDY    73  48  40 S7        30.03R
6HR MIN TEMP:  73; 6HR MAX TEMP:  80;

GREENWOOD *+   PTCLDY    75  41  29 SW7       30.04R
INDIANAPOLIS   MOCLDY    73  45  36 S10       30.01S
6HR MIN TEMP:  73; 6HR MAX TEMP:  78;

-EAGLE CREEK   PTCLDY    74  44  34 SW8       30.01S
6HR MIN TEMP:  74; 6HR MAX TEMP:  78;

MARION +       PTCLDY    74  45  35 S7        30.02S
MT COMFORT *+  CLEAR     75  23  14 SW8       30.04R
SHELBYVILLE    CLEAR     74  49  41 S10       30.03R
6HR MIN TEMP:  74; 6HR MAX TEMP:  80;

ZIONSVILLE +   PTCLDY    74  41  30 SW8       30.03S
6HR MIN TEMP:  74; 6HR MAX TEMP:  79;


$$

INZ033-034-041-042-049-050-058-059-040100-
EAST CENTRAL INDIANA

CITY           SKY/WX    TMP DP  RH WIND       PRES   REMARKS
MUNCIE         CLEAR     75  46  35 S12       30.03R
6HR MIN TEMP:  74; 6HR MAX TEMP:  78;


$$

INZ060-061-067>069-081>083-085>088-040100-
SOUTHWEST INDIANA

CITY           SKY/WX    TMP DP  RH WIND       PRES   REMARKS
EVANSVILLE     CLEAR     76  48  37 S9        30.04R
6HR MIN TEMP:  76; 6HR MAX TEMP:  80;

HUNTINGBURG *+ CLEAR     73  48  40 S8        30.05R
6HR MIN TEMP:  73; 6HR MAX TEMP:  79;

WASHINGTON +   CLEAR     74  42  30 S9        30.02S
6HR MIN TEMP:  74; 6HR MAX TEMP:  78;


$$

INZ062-063-066-070>080-084-089>092-040100-
SOUTH CENTRAL AND SOUTHEAST INDIANA

CITY           SKY/WX    TMP DP  RH WIND       PRES   REMARKS
BEDFORD +      PTCLDY    75  43  31 S7        30.05S
BLOOMINGTON    MOCLDY    75  45  34 SW9       30.04R
6HR MIN TEMP:  75; 6HR MAX TEMP:  80;

MADISON *+     CLEAR     70  43  37 CALM      30.08S
NORTH VERNON + CLEAR     72  46  40 S5        30.06S
SEYMOUR +      PTCLDY    73  52  46 S7        30.04S

$$




USA.gov is the U.S. government's official web portal to all federal, state and local government web resources and services.